Portland Troutdale, OR

6:27 PM PST on February 18, 2018 (GMT -0800)
Portland-Troutdale

Weather History for KTTD - February, 2013

Change the Weather History Date:

Friday, February 22, 2013

  Actual Average Record
Temperature  
Mean Temperature 44 °F 44 °F  
Max Temperature 48 °F 51 °F 64 °F (2002)
Min Temperature 39 °F 36 °F 28 °F (1951)
Degree Days  
Heating Degree Days 21 22  
Month to date heating degree days 464 500  
Cooling Degree Days 0 0  
Month to date cooling degree days 0 0  
Moisture  
Dew Point 38 °F    
Average Humidity 77    
Maximum Humidity 83    
Minimum Humidity 70    
Precipitation  
Precipitation 0.24 in 0.17 in 2.70 in (1982)
Month to date precipitation 0.68 4.00  
Year to date precipitation 4.23 10.18  
Snow  
Snow 0.00 in - - ()
Month to date snowfall 0.0  
Snow Depth 0.00 in    
Sea Level Pressure  
Sea Level Pressure 30.02 in    
Wind  
Wind Speed 10 mph (SW)    
Max Wind Speed 25 mph    
Max Gust Speed 36 mph    
Visibility 10 miles    
Events Rain    
T = Trace of Precipitation, MM = Missing Value Source: NWS Daily Summary

Daily Weather History Graph

Daily Weather History Graph

Search for Another Location

Airport or City:

Trip Planner

Search our weather history database for the weather conditions in past years. The results will help you decide how hot, cold, wet, or windy it might be!

Date:

Astronomy

Feb. 22, 2013 Rise Set
Actual Time 6:59 AM PST 5:47 PM PST
Civil Twilight 6:29 AM PST 6:17 PM PST
Nautical Twilight 5:55 AM PST 6:51 PM PST
Astronomical Twilight 5:20 AM PST 7:26 PM PST
Moon 2:58 PM PST (2/22) 4:54 AM PST (2/22)
Length of Visible Light 11h 47m
Length of Day
10h 47m
Waxing Gibbous, 91% of the Moon is Illuminated
Feb 22
Waxing Gibbous
Feb 25
Full
Mar 4
Last Quarter
Mar 11
New
Mar 19
First Quarter

Hourly Weather History & Observations

Time (PST) Temp. Windchill Dew Point Humidity Pressure Visibility Wind Dir Wind Speed Gust Speed Precip Events Conditions
12:53 AM 45.0 °F 38.9 °F 37.9 °F 76% 30.15 in 10.0 mi SSW 12.7 mph - N/A   Overcast
1:53 AM 45.0 °F 41.8 °F 37.9 °F 76% 30.16 in 10.0 mi SSW 5.8 mph - N/A   Overcast
2:06 AM 44.6 °F 41.4 °F 37.4 °F 76% 30.16 in 10.0 mi WSW 5.8 mph - N/A   Overcast
2:53 AM 45.0 °F 39.7 °F 37.9 °F 76% 30.14 in 10.0 mi SW 10.4 mph - N/A   Overcast
3:11 AM 44.6 °F 41.4 °F 37.4 °F 76% 30.14 in 10.0 mi SW 5.8 mph - N/A   Overcast
3:53 AM 45.0 °F 40.6 °F 37.9 °F 76% 30.13 in 10.0 mi SW 8.1 mph - 0.00 in   Overcast
4:05 AM 44.6 °F 40.2 °F 37.4 °F 76% 30.12 in 10.0 mi SW 8.1 mph - N/A   Overcast
4:31 AM 44.6 °F 39.7 °F 39.2 °F 81% 30.11 in 10.0 mi SW 9.2 mph - N/A   Overcast
4:53 AM 45.0 °F 41.2 °F 39.0 °F 80% 30.10 in 10.0 mi SW 6.9 mph - N/A   Overcast
5:53 AM 46.0 °F 41.9 °F 37.9 °F 73% 30.09 in 10.0 mi SW 8.1 mph - N/A   Overcast
6:53 AM 46.9 °F - 37.0 °F 68% 30.07 in 10.0 mi SSW 10.4 mph - N/A   Overcast
7:53 AM 46.9 °F - 37.9 °F 71% 30.04 in 10.0 mi SSW 9.2 mph 21.9 mph N/A   Overcast
8:53 AM 46.9 °F - 37.9 °F 71% 30.02 in 10.0 mi South 5.8 mph 17.3 mph 0.01 in   Overcast
9:53 AM 46.9 °F - 39.0 °F 74% 30.02 in 9.0 mi SSW 10.4 mph 17.3 mph 0.00 in Rain Light Rain
10:53 AM 46.9 °F - 39.9 °F 77% 29.99 in 10.0 mi SSW 13.8 mph 23.0 mph 0.02 in Rain Light Rain
11:53 AM 46.9 °F - 39.9 °F 77% 29.97 in 10.0 mi SSW 11.5 mph 21.9 mph 0.08 in Rain Light Rain
12:53 PM 46.0 °F 39.9 °F 39.9 °F 79% 29.94 in 6.0 mi SW 13.8 mph 21.9 mph 0.04 in Rain Light Rain
1:53 PM 46.0 °F 39.6 °F 41.0 °F 83% 29.92 in 9.0 mi SSW 15.0 mph 21.9 mph 0.04 in Rain Light Rain
2:53 PM 46.0 °F 39.6 °F 39.9 °F 79% 29.90 in 10.0 mi SSW 15.0 mph 32.2 mph 0.04 in   Overcast
3:04 PM 46.4 °F 38.7 °F 39.2 °F 76% 29.88 in 10.0 mi SSW 20.7 mph 29.9 mph 0.00 in Rain Light Rain
3:44 PM 46.4 °F 39.2 °F 39.2 °F 76% 29.88 in 10.0 mi SSW 18.4 mph 27.6 mph 0.01 in Rain Light Rain
3:53 PM 46.0 °F 38.5 °F 39.9 °F 79% 29.88 in 7.0 mi SSW 19.6 mph 31.1 mph 0.01 in Rain Light Rain
4:53 PM 46.9 °F - 42.1 °F 83% 29.89 in 10.0 mi SSW 13.8 mph - 0.00 in   Partly Cloudy
5:53 PM 46.0 °F 40.6 °F 41.0 °F 83% 29.91 in 10.0 mi SW 11.5 mph 21.9 mph N/A   Scattered Clouds
6:53 PM 45.0 °F 38.9 °F 37.9 °F 76% 29.92 in 10.0 mi WSW 12.7 mph 17.3 mph N/A   Mostly Cloudy
7:53 PM 44.1 °F 40.8 °F 37.0 °F 76% 29.95 in 10.0 mi West 5.8 mph - N/A   Mostly Cloudy
8:53 PM 42.1 °F 38.4 °F 36.0 °F 79% 29.97 in 10.0 mi SW 5.8 mph - N/A   Scattered Clouds
9:53 PM 42.1 °F 38.4 °F 34.0 °F 73% 30.02 in 10.0 mi WSW 5.8 mph - N/A   Mostly Cloudy
10:43 PM 41.0 °F 39.0 °F 33.8 °F 76% 30.05 in 10.0 mi West 3.5 mph - 0.00 in Rain Light Rain
10:53 PM 39.9 °F 37.8 °F 34.0 °F 79% 30.05 in 10.0 mi West 3.5 mph - 0.00 in Rain Light Rain
11:53 PM 39.0 °F 36.8 °F 35.1 °F 86% 30.07 in 10.0 mi WSW 3.5 mph - N/A   Scattered Clouds